TOM2DL EGCC-LGKO

Flight info

Callsign TOM2DL
Flight time N/A
Altitude 37000
Route DESIG L603 DOLAS DCT NAVPI DCT DODEN DCT NEGIX DCT DINKU DCT BESNI DCT LATLO DCT OBEDI DCT BERTA DCT TEBLI DCT TIVNU DCT MEDUX UM867 KOGAT DCT ERANA UL737 TSL UN130 MES UN139 LURUS L995 KOPAR
Aircraft B738/M-SDE2E3FGHIRWXY/LB1

Departure

Time N/A
Airport Manchester Airport (EGCC)

Arrival

Time 2026-05-06 22:32
Airport Kos International Airport "Ippokratis" (LGKO)
Time Latitude Longitude Altitude Speed Heading
2026-05-06 22:00 38.76489 25.25390 37075 ft 468 kts 135°
2026-05-06 22:00 38.74182 25.28347 37080 ft 469 kts 135°
2026-05-06 22:00 38.69565 25.34255 37101 ft 469 kts 135°
2026-05-06 22:01 38.64944 25.40159 37079 ft 469 kts 135°
2026-05-06 22:01 38.60347 25.46022 37097 ft 470 kts 135°
2026-05-06 22:02 38.55714 25.51919 37080 ft 470 kts 135°
2026-05-06 22:02 38.51068 25.57818 37083 ft 471 kts 135°
2026-05-06 22:03 38.46405 25.63730 36777 ft 476 kts 135°
2026-05-06 22:03 38.44060 25.66699 36319 ft 474 kts 135°
2026-05-06 22:03 38.41719 25.69661 35754 ft 474 kts 135°
2026-05-06 22:04 38.39371 25.72628 35217 ft 473 kts 135°
2026-05-06 22:04 38.37042 25.75569 34800 ft 470 kts 135°
2026-05-06 22:04 38.34722 25.78503 34284 ft 469 kts 135°
2026-05-06 22:04 38.32413 25.81426 33864 ft 466 kts 135°
2026-05-06 22:05 38.30119 25.84329 33432 ft 464 kts 135°
2026-05-06 22:05 38.27827 25.87212 33006 ft 461 kts 137°
2026-05-06 22:05 38.25367 25.89727 32584 ft 459 kts 147°
2026-05-06 22:05 38.22617 25.91769 32090 ft 457 kts 156°
2026-05-06 22:06 38.19673 25.93249 31657 ft 452 kts 162°
2026-05-06 22:06 38.16705 25.94567 31236 ft 450 kts 163°
2026-05-06 22:06 38.13744 25.95863 30818 ft 448 kts 163°
2026-05-06 22:06 38.10804 25.97161 30405 ft 446 kts 163°
2026-05-06 22:07 38.07882 25.98466 29994 ft 444 kts 162°
2026-05-06 22:07 38.04977 25.99777 29571 ft 442 kts 162°
2026-05-06 22:07 38.02091 26.01085 29155 ft 439 kts 162°
2026-05-06 22:07 37.99218 26.02391 28729 ft 437 kts 162°
2026-05-06 22:08 37.96364 26.03687 28304 ft 435 kts 162°
2026-05-06 22:08 37.93523 26.04977 27886 ft 432 kts 162°
2026-05-06 22:08 37.90696 26.06258 27459 ft 430 kts 162°
2026-05-06 22:08 37.87888 26.07531 27050 ft 428 kts 162°
2026-05-06 22:09 37.85089 26.08798 26633 ft 426 kts 162°
2026-05-06 22:09 37.82301 26.10059 26215 ft 424 kts 162°
2026-05-06 22:09 37.79565 26.11296 25805 ft 422 kts 162°
2026-05-06 22:09 37.76804 26.12541 25393 ft 420 kts 162°
2026-05-06 22:10 37.74052 26.13782 24979 ft 418 kts 162°
2026-05-06 22:10 37.71334 26.15006 24565 ft 416 kts 162°
2026-05-06 22:10 37.68606 26.16233 24158 ft 414 kts 162°
2026-05-06 22:10 37.65891 26.17452 23747 ft 412 kts 162°
2026-05-06 22:11 37.63195 26.18663 23339 ft 410 kts 161°
2026-05-06 22:11 37.60507 26.19870 22935 ft 408 kts 161°
2026-05-06 22:11 37.57837 26.21067 22527 ft 406 kts 162°
2026-05-06 22:11 37.55181 26.22255 22134 ft 403 kts 161°
2026-05-06 22:12 37.52541 26.23438 21732 ft 401 kts 161°
2026-05-06 22:12 37.49919 26.24613 21333 ft 398 kts 161°
2026-05-06 22:12 37.47316 26.25778 20937 ft 396 kts 161°
2026-05-06 22:12 37.44728 26.26935 20544 ft 394 kts 161°
2026-05-06 22:13 37.42151 26.28086 20149 ft 391 kts 161°
2026-05-06 22:13 37.39598 26.29226 19751 ft 388 kts 161°
2026-05-06 22:13 37.37069 26.30355 19368 ft 385 kts 161°
2026-05-06 22:13 37.34556 26.31475 18986 ft 382 kts 161°
2026-05-06 22:14 37.32088 26.32573 18606 ft 379 kts 161°
2026-05-06 22:14 37.29612 26.33675 18229 ft 376 kts 161°
2026-05-06 22:14 37.27154 26.34768 17853 ft 373 kts 161°
2026-05-06 22:14 37.24715 26.35853 17476 ft 370 kts 161°
2026-05-06 22:15 37.22296 26.36927 17107 ft 368 kts 161°
2026-05-06 22:15 37.19885 26.37997 16754 ft 364 kts 161°
2026-05-06 22:15 37.17526 26.39044 16560 ft 356 kts 161°
2026-05-06 22:15 37.15201 26.40074 16219 ft 353 kts 161°
2026-05-06 22:16 37.12893 26.41097 15871 ft 351 kts 161°
2026-05-06 22:16 37.10600 26.42114 15514 ft 349 kts 161°
2026-05-06 22:16 37.08319 26.43124 15151 ft 347 kts 161°
2026-05-06 22:16 37.06050 26.44128 14787 ft 345 kts 161°
2026-05-06 22:17 37.03790 26.45127 14422 ft 344 kts 161°
2026-05-06 22:17 37.01536 26.46124 14058 ft 342 kts 161°
2026-05-06 22:17 36.99329 26.47100 13700 ft 340 kts 161°
2026-05-06 22:17 36.97102 26.48084 13341 ft 338 kts 161°
2026-05-06 22:18 36.94888 26.49061 12984 ft 337 kts 161°
2026-05-06 22:18 36.92687 26.50031 12629 ft 334 kts 161°
2026-05-06 22:18 36.90519 26.51064 12266 ft 333 kts 152°
2026-05-06 22:18 36.88733 26.52851 11922 ft 329 kts 128°
2026-05-06 22:19 36.87585 26.55283 11606 ft 323 kts 111°
2026-05-06 22:19 36.86731 26.57860 11277 ft 320 kts 110°
2026-05-06 22:19 36.85893 26.60429 10929 ft 319 kts 110°
2026-05-06 22:19 36.85043 26.62971 10587 ft 317 kts 111°
2026-05-06 22:20 36.84184 26.65492 10379 ft 311 kts 111°
2026-05-06 22:20 36.83341 26.67935 10230 ft 302 kts 112°
2026-05-06 22:20 36.82250 26.70135 10067 ft 297 kts 129°
2026-05-06 22:20 36.80864 26.72035 9763 ft 297 kts 132°
2026-05-06 22:21 36.79448 26.73918 9405 ft 297 kts 132°
2026-05-06 22:21 36.78041 26.75800 8975 ft 295 kts 131°
2026-05-06 22:21 36.76654 26.77676 8533 ft 294 kts 131°
2026-05-06 22:21 36.75277 26.79555 8086 ft 293 kts 131°
2026-05-06 22:22 36.73911 26.81427 7644 ft 291 kts 131°
2026-05-06 22:22 36.72554 26.83290 7189 ft 290 kts 131°
2026-05-06 22:22 36.71213 26.85130 6746 ft 289 kts 131°
2026-05-06 22:22 36.69865 26.86985 6298 ft 288 kts 130°
2026-05-06 22:23 36.68741 26.88997 5840 ft 285 kts 115°
2026-05-06 22:23 36.67912 26.91222 5401 ft 282 kts 114°
2026-05-06 22:23 36.67076 26.93430 4952 ft 281 kts 115°
2026-05-06 22:23 36.66223 26.95617 4503 ft 280 kts 115°
2026-05-06 22:24 36.65362 26.97787 4093 ft 278 kts 116°
2026-05-06 22:24 36.64524 26.99885 4000 ft 263 kts 116°
2026-05-06 22:24 36.63716 27.01897 3993 ft 257 kts 116°
2026-05-06 22:24 36.62929 27.03853 3989 ft 246 kts 116°
2026-05-06 22:25 36.62184 27.05708 3981 ft 234 kts 116°
2026-05-06 22:25 36.61473 27.07475 3979 ft 221 kts 116°
2026-05-06 22:25 36.60792 27.09167 3996 ft 219 kts 116°
2026-05-06 22:25 36.60115 27.10848 4024 ft 216 kts 116°
2026-05-06 22:26 36.59673 27.11963 3963 ft 217 kts 112°
2026-05-06 22:26 36.59641 27.14311 3788 ft 204 kts 66°
2026-05-06 22:26 36.60161 27.15919 3636 ft 198 kts 68°
2026-05-06 22:26 36.60652 27.17510 3497 ft 195 kts 68°
2026-05-06 22:27 36.61138 27.19085 3359 ft 195 kts 68°
2026-05-06 22:27 36.61475 27.20124 3261 ft 195 kts 62°
2026-05-06 22:27 36.62432 27.21250 3099 ft 193 kts 17°
2026-05-06 22:27 36.63744 27.21249 2981 ft 192 kts 339°
2026-05-06 22:28 36.64909 27.20454 2872 ft 191 kts 327°
2026-05-06 22:28 36.66036 27.19567 2726 ft 191 kts 327°
2026-05-06 22:28 36.67157 27.18689 2531 ft 189 kts 327°
2026-05-06 22:28 36.68250 27.17831 2355 ft 182 kts 327°
2026-05-06 22:29 36.69307 27.17001 2152 ft 178 kts 327°
2026-05-06 22:29 36.70346 27.16194 1981 ft 173 kts 328°
2026-05-06 22:29 36.71353 27.15412 1776 ft 168 kts 328°
2026-05-06 22:29 36.72320 27.14661 1586 ft 160 kts 328°
2026-05-06 22:30 36.73271 27.13923 1413 ft 160 kts 328°
2026-05-06 22:30 36.74193 27.13204 1211 ft 153 kts 328°
2026-05-06 22:30 36.75076 27.12524 1058 ft 150 kts 328°
2026-05-06 22:30 36.75965 27.11830 960 ft 147 kts 328°
2026-05-06 22:31 36.76807 27.11174 842 ft 137 kts 326°
2026-05-06 22:31 36.77614 27.10527 648 ft 139 kts 328°
2026-05-06 22:31 36.78440 27.09894 466 ft 140 kts 328°
2026-05-06 22:31 36.79225 27.09298 406 ft 121 kts 327°
2026-05-06 22:32 36.79710 27.08913 415 ft 44 kts 327°
2026-05-06 22:32 36.79963 27.08720 415 ft 41 kts 328°
2026-05-06 22:32 36.80195 27.08542 417 ft 37 kts 327°
2026-05-06 22:32 36.80337 27.08455 420 ft 14 kts 25°
2026-05-06 22:33 36.80354 27.08543 420 ft 11 kts 104°
2026-05-06 22:33 36.80333 27.08631 420 ft 10 kts 109°
2026-05-06 22:33 36.80295 27.08703 416 ft 10 kts 147°
2026-05-06 22:33 36.80236 27.08748 416 ft 10 kts 149°
2026-05-06 22:34 36.80168 27.08798 416 ft 14 kts 150°
2026-05-06 22:34 36.80085 27.08864 411 ft 14 kts 145°
2026-05-06 22:34 36.80012 27.08928 414 ft 7 kts 122°
2026-05-06 22:34 36.80029 27.08979 418 ft 7 kts 57°
2026-05-06 22:35 36.80045 27.09011 418 ft 0 kts 57°